User: anonymous   Login
Location: Gungolding
(48.9246°N, 11.3502°E)
Time: 17:52:31
(UTC+02:00)
Language:

Tiros 1 - Orbit

View from above orbital plane
View from above orbital plane
View from above satellite
View from above satellite

Ground track
Ground track

The orbit data is extracted from the following two-line orbital elements,

1    29U 60002B   20098.84816501 -.00000124 +00000-0 +12526-4 0  9999
2    29 048.3795 281.8252 0024454 290.0174 069.8105 14.74349307208123
Epoch (UTC): 07 April 2020 20:21:21
Eccentricity: 0.0024454
inclination: 48.3795°
perigee height: 630 km
apogee height: 664 km
right ascension of ascending node: 281.8252°
argument of perigee: 290.0174°
revolutions per day: 14.74349307
mean anomaly at epoch: 69.8105°
orbit number at epoch: 20812

The dashed part of the orbit path shows where the satellite is in the earth's shadow,  

DLR